TimeEST,TemperatureF,Dew PointF,Humidity,Sea Level PressureIn,VisibilityMPH,Wind Direction,Wind SpeedMPH,Gust SpeedMPH,PrecipitationIn,Events,Conditions,WindDirDegrees,DateUTC
12:15 AM,66.2,59.0,78,30.08,10.0,ESE,9.2,-,N/A,,Scattered Clouds,120,2013-02-07 05:15:00
12:35 AM,64.4,57.2,77,30.08,10.0,SE,8.1,-,N/A,,Scattered Clouds,130,2013-02-07 05:35:00
12:55 AM,64.4,57.2,77,30.09,10.0,SE,5.8,-,N/A,,Scattered Clouds,130,2013-02-07 05:55:00
1:15 AM,64.4,57.2,77,30.08,10.0,SE,8.1,-,N/A,,Mostly Cloudy,130,2013-02-07 06:15:00
1:35 AM,66.2,57.2,73,30.08,10.0,SE,9.2,-,N/A,,Overcast,130,2013-02-07 06:35:00
1:55 AM,64.4,57.2,77,30.08,10.0,SE,6.9,-,N/A,,Scattered Clouds,130,2013-02-07 06:55:00
2:15 AM,64.4,57.2,77,30.07,10.0,SE,10.4,-,N/A,,Scattered Clouds,140,2013-02-07 07:15:00
2:35 AM,64.4,57.2,77,30.07,10.0,SE,8.1,-,N/A,,Scattered Clouds,130,2013-02-07 07:35:00
2:55 AM,64.4,57.2,77,30.06,10.0,ESE,6.9,-,N/A,,Clear,120,2013-02-07 07:55:00
3:15 AM,62.6,57.2,82,30.06,10.0,ESE,6.9,-,N/A,,Clear,110,2013-02-07 08:15:00
3:35 AM,62.6,57.2,82,30.05,10.0,ESE,5.8,-,N/A,,Clear,120,2013-02-07 08:35:00
3:55 AM,62.6,57.2,82,30.05,10.0,East,4.6,-,N/A,,Clear,90,2013-02-07 08:55:00
4:15 AM,60.8,57.2,88,30.06,10.0,Calm,Calm,-,N/A,,Clear,0,2013-02-07 09:15:00
4:35 AM,60.8,57.2,88,30.06,10.0,East,3.5,-,N/A,,Clear,100,2013-02-07 09:35:00
4:55 AM,60.8,55.4,82,30.06,10.0,East,3.5,-,N/A,,Clear,90,2013-02-07 09:55:00
5:15 AM,60.8,57.2,88,30.06,10.0,Calm,Calm,-,N/A,,Scattered Clouds,0,2013-02-07 10:15:00
5:35 AM,60.8,57.2,88,30.07,10.0,Calm,Calm,-,N/A,,Mostly Cloudy,0,2013-02-07 10:35:00
5:50 AM,60.8,57.2,88,30.06,10.0,East,4.6,-,N/A,,Mostly Cloudy,90,2013-02-07 10:50:00
6:50 AM,59.0,57.2,94,30.07,7.0,Calm,Calm,-,N/A,,Scattered Clouds,0,2013-02-07 11:50:00
8:50 AM,66.2,62.6,88,30.08,8.0,SSE,6.9,-,N/A,,Overcast,150,2013-02-07 13:50:00
10:50 AM,75.2,62.6,65,30.08,10.0,SSE,11.5,20.7,N/A,,Mostly Cloudy,160,2013-02-07 15:50:00
1:50 PM,80.6,57.2,45,29.97,15.0,SSE,13.8,20.7,N/A,,Mostly Cloudy,150,2013-02-07 18:50:00
2:50 PM,80.6,55.4,42,29.93,15.0,South,16.1,25.3,N/A,,Mostly Cloudy,180,2013-02-07 19:50:00
3:53 PM,80.6,55.4,42,29.92,15.0,South,15.0,20.7,N/A,,Mostly Cloudy,170,2013-02-07 20:53:00
4:21 PM,80.6,53.6,39,29.93,15.0,SSW,16.1,23.0,N/A,,Mostly Cloudy,210,2013-02-07 21:21:00
4:52 PM,78.8,53.6,42,29.94,15.0,SW,20.7,-,N/A,,Mostly Cloudy,220,2013-02-07 21:52:00
5:53 PM,75.2,55.4,50,29.90,15.0,SSW,20.7,25.3,N/A,,Mostly Cloudy,200,2013-02-07 22:53:00
6:52 PM,73.4,60.8,65,29.95,15.0,SW,17.3,26.5,N/A,,Overcast,220,2013-02-07 23:52:00
7:54 PM,71.6,62.6,73,29.93,5.0,South,17.3,-,N/A,Rain,Light Rain,190,2013-02-08 00:54:00
8:51 PM,69.8,64.4,83,29.94,10.0,SSW,12.7,17.3,N/A,,Overcast,210,2013-02-08 01:51:00
9:55 PM,68.0,62.6,83,29.93,10.0,SW,11.5,-,N/A,,Scattered Clouds,220,2013-02-08 02:55:00
9:56 PM,69.8,64.4,83,29.93,10.0,SW,12.7,17.3,N/A,,Overcast,220,2013-02-08 02:56:00
10:15 PM,68.0,62.6,83,29.93,10.0,SSW,11.5,-,N/A,,Scattered Clouds,210,2013-02-08 03:15:00
10:35 PM,68.0,62.6,83,29.93,10.0,SSW,10.4,-,N/A,,Mostly Cloudy,210,2013-02-08 03:35:00
10:55 PM,68.0,62.6,83,29.93,10.0,SW,11.5,-,N/A,,Scattered Clouds,220,2013-02-08 03:55:00
11:15 PM,68.0,62.6,83,29.93,10.0,SW,9.2,-,N/A,,Scattered Clouds,230,2013-02-08 04:15:00
11:35 PM,68.0,62.6,83,29.93,10.0,SW,8.1,-,N/A,,Clear,230,2013-02-08 04:35:00
11:55 PM,68.0,62.6,83,29.93,10.0,SW,9.2,-,N/A,,Clear,230,2013-02-08 04:55:00